Other Public Products
Issued by NWS Charleston, SC

Current Version | Previous Version | Graphics & Text | Print | Product List | Glossary On
Versions: 1 2 3 4 5 6 7 8 9 10 11 12 13 14 15 16 17 18 19 20 21 22 23 24 25 26 27 28 29 30 31 32 33 34 35 36 37 38 39 40 41 42 43 44 45 46 47 48 49 50
611 FPUS82 KCHS 221527 OPUCHS TEST...KCHS/KSAV Gateway Observations...TEST National Weather Service Charleston SC 1000 AM EST WED NOV 22 2017 NOTE: "fair" indicates few or no clouds below 12,000 feet with no significant weather and/or obstructions to visibility. SCZ050-WAZ558-NCZ071-TXZ119-213-PAZ071-DCZ001-FLZ074-172-MI076- NYZ176-178-MAZ016-IL014-TNZ027-NJZ106-GAZ044-MD014-221600- ...Gateway Observations for Charleston International... CITY SKY/WX TMP DP RH WIND PRES REMARKS Chas Airport PTSUNNY 61 58 90 NW7 30.04R Seattle CLOUDY 58 57 97 S3 29.97R Charlotte MOSUNNY 57 49 74 N8 30.05R Dallas DFW CLOUDY 44 21 40 N13 30.38R Dallas Love PTSUNNY 43 21 41 N13 30.40R Philladelphia CLOUDY 53 48 83 W8 29.93R Wash National MOSUNNY 58 36 43 NW16G29 29.98R Baltimore MOSUNNY 56 37 49 NW16G28 29.95S Miami MOSUNNY 82 71 69 CALM 29.96S Detroit PTSUNNY 33 16 49 N12 30.28R WCI 24 Newark CLOUDY 51 47 86 NE5 29.88F Laguardia CLOUDY 51 48 89 NW10 29.89S J F K CLOUDY 54 52 93 NW10 29.89F Boston Logan RAIN 52 52 100 E5 29.90F FOG Ft. Lauderdale MOSUNNY 79 72 79 CALM 29.95S Chicago O`Hare MOSUNNY 26 13 57 NW7 30.36R WCI 18 Chicago Midway MOSUNNY 27 15 61 NW7 30.37R WCI 19 Houston Bush MOSUNNY 60 52 74 N17 30.24R Houston Hobby MOSUNNY 61 53 75 N15 30.23R Nashville MOSUNNY 38 26 62 N13 30.31R WCI 30 Atlanta MOSUNNY 55 41 59 N12 30.09R $$ GAZ044-118-TXZ119-213-NCZ071-DCZ001-MDZ014-506-PAZ021-071-NJZ106- NYZ176-178-MAZ106-OHZ011-021-055-MIZ076-KYZ091-ILZ014-INZ047- MNZ060-ONZ431-221600- ...Gateway Observations for Savannah International... CITY SKY/WX TMP DP RH WIND PRES REMARKS Savannah Arpt CLOUDY 60 60 100 N8 30.03F Atlanta MOSUNNY 55 41 59 N12 30.09R Charlotte MOSUNNY 57 49 74 N8 30.05R Dallas DFW CLOUDY 44 21 40 N13 30.38R Houston Bush MOSUNNY 60 52 74 N17 30.24R Wash National MOSUNNY 58 36 43 NW16G29 29.98R Wash Dulles MOSUNNY 55 35 47 NW21G30 30.00R Baltimore MOSUNNY 56 37 49 NW16G28 29.95S Philadelphia CLOUDY 53 48 83 W8 29.93R Newark CLOUDY 51 47 86 NE5 29.88F Laguardia CLOUDY 51 48 89 NW10 29.89S J F K CLOUDY 54 52 93 NW10 29.89F Boston RAIN 52 52 100 E5 29.90F FOG Pittsburg FLURRIES 34 31 88 NW12 30.16R WCI 25 Akron CLOUDY 33 25 72 NW10 30.20R WCI 25 Cleveland CLOUDY 34 24 67 NW13 30.25R WCI 25 Cincinnati MOSUNNY 34 27 75 NW8 30.29R WCI 27 Columbus CLOUDY 35 26 69 NW12 30.26S WCI 27 Detroit PTSUNNY 33 16 49 N12 30.28R WCI 24 Chicago O`Hare MOSUNNY 26 13 57 NW7 30.36R WCI 18 Minneapolis CLOUDY 19 13 77 S6 30.31F WCI 11 Indianapolis MOSUNNY 30 22 72 NW12 30.34R WCI 20 Toronto Canada PTSUNNY 30 18 59 NW21 30.15R WCI 17 $$

USA.gov is the U.S. government's official web portal to all federal, state and local government web resources and services.